TAP1976 LPPR-LPPT

Flight info

Callsign TAP1976
Flight time 0h 49m
Altitude 37000
Route MANIK DCT ABRIL DCT XAMAX
Aircraft A20N/M-SDE2E3FGHIRWXY/LB1

Departure

Time 2026-05-07 19:39
Airport Francisco de Sá Carneiro Airport (LPPR)

Arrival

Time 2026-05-07 20:29
Airport Lisbon Humberto Delgado Airport (LPPT)
Time Latitude Longitude Altitude Speed Heading
2026-05-07 19:31 41.23387 -8.67464 233 ft 0 kts 259°
2026-05-07 19:35 41.23390 -8.67445 237 ft 4 kts 257°
2026-05-07 19:36 41.23410 -8.67363 235 ft 0 kts 251°
2026-05-07 19:36 41.23403 -8.67371 236 ft 0 kts 167°
2026-05-07 19:36 41.23392 -8.67368 233 ft 7 kts 173°
2026-05-07 19:37 41.23339 -8.67419 233 ft 12 kts 240°
2026-05-07 19:37 41.23319 -8.67530 238 ft 13 kts 258°
2026-05-07 19:37 41.23301 -8.67648 239 ft 13 kts 267°
2026-05-07 19:37 41.23353 -8.67741 239 ft 15 kts 328°
2026-05-07 19:38 41.23406 -8.67757 237 ft 0 kts 351°
2026-05-07 19:38 41.23415 -8.67759 236 ft 8 kts 349°
2026-05-07 19:38 41.23705 -8.67838 224 ft 74 kts 349°
2026-05-07 19:39 41.24412 -8.68025 214 ft 130 kts 348°
2026-05-07 19:39 41.25442 -8.68299 203 ft 169 kts 349°
2026-05-07 19:39 41.26510 -8.68529 838 ft 161 kts 350°
2026-05-07 19:39 41.27251 -8.68698 1140 ft 165 kts 349°
2026-05-07 19:40 41.28799 -8.69114 1905 ft 171 kts 347°
2026-05-07 19:40 41.29998 -8.69459 2410 ft 184 kts 347°
2026-05-07 19:40 41.31308 -8.69826 2791 ft 200 kts 347°
2026-05-07 19:40 41.32755 -8.70218 3092 ft 225 kts 348°
2026-05-07 19:41 41.33994 -8.70547 3464 ft 243 kts 348°
2026-05-07 19:41 41.35720 -8.71002 4102 ft 261 kts 348°
2026-05-07 19:41 41.36913 -8.71314 4775 ft 265 kts 348°
2026-05-07 19:41 41.38729 -8.71795 5889 ft 268 kts 346°
2026-05-07 19:42 41.40416 -8.72836 6934 ft 272 kts 320°
2026-05-07 19:42 41.41585 -8.74812 7971 ft 276 kts 294°
2026-05-07 19:42 41.41909 -8.78149 9285 ft 281 kts 262°
2026-05-07 19:42 41.41643 -8.79878 9942 ft 284 kts 251°
2026-05-07 19:43 41.40165 -8.82734 11216 ft 290 kts 218°
2026-05-07 19:43 41.38345 -8.83919 12129 ft 295 kts 195°
2026-05-07 19:43 41.36983 -8.84327 12736 ft 298 kts 191°
2026-05-07 19:43 41.34922 -8.84767 13639 ft 303 kts 188°
2026-05-07 19:44 41.32821 -8.85196 14507 ft 307 kts 189°
2026-05-07 19:44 41.31430 -8.85504 15072 ft 309 kts 190°
2026-05-07 19:44 41.31387 -8.85514 15087 ft 310 kts 190°
2026-05-07 19:44 41.31246 -8.85547 15133 ft 310 kts 190°
2026-05-07 19:45 41.30325 -8.85764 15504 ft 312 kts 190°
2026-05-07 19:45 41.28176 -8.86290 16317 ft 316 kts 191°
2026-05-07 19:45 41.26008 -8.86850 17108 ft 320 kts 191°
2026-05-07 19:45 41.23814 -8.87434 17878 ft 324 kts 191°
2026-05-07 19:46 41.21634 -8.88019 18612 ft 327 kts 191°
2026-05-07 19:46 41.19388 -8.88631 19336 ft 331 kts 192°
2026-05-07 19:46 41.17119 -8.89253 20053 ft 335 kts 192°
2026-05-07 19:46 41.14827 -8.89877 20742 ft 339 kts 192°
2026-05-07 19:47 41.12504 -8.90502 21413 ft 342 kts 192°
2026-05-07 19:47 41.10157 -8.91130 22065 ft 346 kts 192°
2026-05-07 19:47 41.07784 -8.91761 22643 ft 351 kts 192°
2026-05-07 19:47 41.05384 -8.92399 22826 ft 352 kts 192°
2026-05-07 19:48 41.03011 -8.93029 22965 ft 352 kts 192°
2026-05-07 19:48 41.00580 -8.93674 23071 ft 353 kts 192°
2026-05-07 19:48 40.98169 -8.94313 23090 ft 353 kts 192°
2026-05-07 19:48 40.95793 -8.94943 23090 ft 353 kts 192°
2026-05-07 19:49 40.93391 -8.95579 23090 ft 353 kts 192°
2026-05-07 19:49 40.90985 -8.96216 23090 ft 353 kts 192°
2026-05-07 19:49 40.88576 -8.96852 23090 ft 353 kts 192°
2026-05-07 19:49 40.86171 -8.97488 23090 ft 353 kts 192°
2026-05-07 19:50 40.83760 -8.98120 22976 ft 353 kts 191°
2026-05-07 19:50 40.81369 -8.98747 23084 ft 352 kts 192°
2026-05-07 19:50 40.78960 -8.99384 23090 ft 353 kts 192°
2026-05-07 19:50 40.76550 -9.00021 23090 ft 353 kts 192°
2026-05-07 19:51 40.74145 -9.00656 23090 ft 353 kts 192°
2026-05-07 19:51 40.71742 -9.01289 23090 ft 353 kts 192°
2026-05-07 19:51 40.69332 -9.01923 23090 ft 353 kts 192°
2026-05-07 19:51 40.66929 -9.02554 23090 ft 353 kts 191°
2026-05-07 19:52 40.64520 -9.03186 23090 ft 353 kts 192°
2026-05-07 19:52 40.62117 -9.03816 23090 ft 353 kts 191°
2026-05-07 19:52 40.59710 -9.04447 23090 ft 353 kts 191°
2026-05-07 19:52 40.57303 -9.05077 23090 ft 353 kts 191°
2026-05-07 19:53 40.54894 -9.05708 23090 ft 353 kts 191°
2026-05-07 19:53 40.52488 -9.06337 23090 ft 353 kts 191°
2026-05-07 19:53 40.50081 -9.06966 23090 ft 353 kts 191°
2026-05-07 19:53 40.47703 -9.07587 23090 ft 353 kts 191°
2026-05-07 19:54 40.45294 -9.08215 23090 ft 353 kts 191°
2026-05-07 19:54 40.42891 -9.08842 23090 ft 353 kts 191°
2026-05-07 19:54 40.40483 -9.09470 23090 ft 353 kts 191°
2026-05-07 19:54 40.38076 -9.10096 23090 ft 353 kts 191°
2026-05-07 19:55 40.35668 -9.10723 23090 ft 353 kts 191°
2026-05-07 19:55 40.33262 -9.11348 23090 ft 353 kts 191°
2026-05-07 19:55 40.31169 -9.11892 23090 ft 353 kts 191°
2026-05-07 19:55 40.28741 -9.12523 23090 ft 353 kts 191°
2026-05-07 19:56 40.26334 -9.13147 23089 ft 353 kts 191°
2026-05-07 19:56 40.23926 -9.13766 23002 ft 353 kts 191°
2026-05-07 19:56 40.21525 -9.14389 22943 ft 353 kts 192°
2026-05-07 19:56 40.19120 -9.15018 22869 ft 348 kts 191°
2026-05-07 19:57 40.16735 -9.15636 23081 ft 353 kts 191°
2026-05-07 19:57 40.14301 -9.16260 22669 ft 360 kts 191°
2026-05-07 19:57 40.11959 -9.16863 22864 ft 338 kts 191°
2026-05-07 19:57 40.09649 -9.17459 22832 ft 340 kts 191°
2026-05-07 19:58 40.07289 -9.18070 22953 ft 352 kts 191°
2026-05-07 19:58 40.04871 -9.18696 22999 ft 354 kts 191°
2026-05-07 19:58 40.02466 -9.19316 23000 ft 351 kts 191°
2026-05-07 19:58 40.00066 -9.19934 23000 ft 352 kts 191°
2026-05-07 19:59 39.97660 -9.20553 23000 ft 352 kts 191°
2026-05-07 19:59 39.95258 -9.21170 23000 ft 352 kts 191°
2026-05-07 19:59 39.92855 -9.21787 23000 ft 352 kts 191°
2026-05-07 19:59 39.90448 -9.22400 23000 ft 352 kts 191°
2026-05-07 20:00 39.88046 -9.23016 22966 ft 351 kts 191°
2026-05-07 20:00 39.85826 -9.23587 22730 ft 349 kts 191°
2026-05-07 20:00 39.83435 -9.24201 22350 ft 347 kts 191°
2026-05-07 20:00 39.81069 -9.24808 21888 ft 345 kts 191°
2026-05-07 20:01 39.78723 -9.25409 21436 ft 343 kts 191°
2026-05-07 20:01 39.76389 -9.26006 20996 ft 341 kts 191°
2026-05-07 20:01 39.74067 -9.26599 20558 ft 338 kts 191°
2026-05-07 20:01 39.71764 -9.27187 20115 ft 336 kts 191°
2026-05-07 20:02 39.69476 -9.27770 19678 ft 334 kts 191°
2026-05-07 20:02 39.67246 -9.28339 19251 ft 332 kts 191°
2026-05-07 20:02 39.65126 -9.28879 18850 ft 330 kts 191°
2026-05-07 20:02 39.62883 -9.29450 18416 ft 327 kts 191°
2026-05-07 20:03 39.60656 -9.30017 17985 ft 325 kts 191°
2026-05-07 20:03 39.58443 -9.30580 17560 ft 323 kts 191°
2026-05-07 20:03 39.56256 -9.31135 17134 ft 321 kts 191°
2026-05-07 20:03 39.54068 -9.31691 16711 ft 319 kts 191°
2026-05-07 20:04 39.51898 -9.32242 16293 ft 317 kts 191°
2026-05-07 20:04 39.49740 -9.32789 15873 ft 315 kts 191°
2026-05-07 20:04 39.47596 -9.33332 15454 ft 313 kts 191°
2026-05-07 20:04 39.45473 -9.33870 15117 ft 308 kts 191°
2026-05-07 20:05 39.43367 -9.34403 15018 ft 310 kts 191°
2026-05-07 20:05 39.41261 -9.34936 15004 ft 313 kts 191°
2026-05-07 20:05 39.38988 -9.35512 15003 ft 346 kts 191°
2026-05-07 20:05 39.36565 -9.36125 14999 ft 359 kts 191°
2026-05-07 20:06 39.34109 -9.36744 14999 ft 359 kts 191°
2026-05-07 20:06 39.31892 -9.37303 14997 ft 354 kts 191°
2026-05-07 20:06 39.29554 -9.37892 14997 ft 336 kts 191°
2026-05-07 20:06 39.27313 -9.38456 14928 ft 321 kts 191°
2026-05-07 20:07 39.25161 -9.38998 14743 ft 310 kts 191°
2026-05-07 20:07 39.23057 -9.39527 14344 ft 307 kts 191°
2026-05-07 20:07 39.20963 -9.40054 13929 ft 306 kts 191°
2026-05-07 20:07 39.18910 -9.40571 13526 ft 304 kts 191°
2026-05-07 20:08 39.16840 -9.41091 13109 ft 302 kts 191°
2026-05-07 20:08 39.14784 -9.41607 12700 ft 300 kts 191°
2026-05-07 20:08 39.12740 -9.42120 12289 ft 298 kts 191°
2026-05-07 20:08 39.10711 -9.42629 11882 ft 296 kts 191°
2026-05-07 20:09 39.08693 -9.43135 11476 ft 295 kts 191°
2026-05-07 20:09 39.06685 -9.43637 11071 ft 293 kts 191°
2026-05-07 20:09 39.04691 -9.44136 10663 ft 291 kts 191°
2026-05-07 20:10 39.00746 -9.44435 10053 ft 287 kts 161°
2026-05-07 20:10 38.99007 -9.43128 10015 ft 291 kts 140°
2026-05-07 20:10 38.97489 -9.41419 9999 ft 290 kts 139°
2026-05-07 20:10 38.95974 -9.39699 9999 ft 291 kts 139°
2026-05-07 20:11 38.94458 -9.37979 9999 ft 291 kts 139°
2026-05-07 20:11 38.92943 -9.36260 9998 ft 288 kts 139°
2026-05-07 20:11 38.91482 -9.34603 9997 ft 273 kts 139°
2026-05-07 20:11 38.90101 -9.33045 9996 ft 257 kts 141°
2026-05-07 20:12 38.88524 -9.32065 10000 ft 256 kts 170°
2026-05-07 20:12 38.86762 -9.32183 10004 ft 255 kts 199°
2026-05-07 20:12 38.85244 -9.33323 10005 ft 255 kts 218°
2026-05-07 20:12 38.83856 -9.34724 9922 ft 253 kts 219°
2026-05-07 20:13 38.82480 -9.36119 9657 ft 252 kts 219°
2026-05-07 20:13 38.81108 -9.37510 9330 ft 251 kts 219°
2026-05-07 20:13 38.79743 -9.38892 9065 ft 247 kts 219°
2026-05-07 20:13 38.78385 -9.40268 9000 ft 252 kts 219°
2026-05-07 20:14 38.77009 -9.41662 9000 ft 251 kts 219°
2026-05-07 20:14 38.75641 -9.43048 9000 ft 250 kts 219°
2026-05-07 20:14 38.74278 -9.44429 9000 ft 250 kts 219°
2026-05-07 20:14 38.72910 -9.45814 9000 ft 250 kts 219°
2026-05-07 20:15 38.71546 -9.47196 9001 ft 250 kts 219°
2026-05-07 20:15 38.70178 -9.48580 9000 ft 250 kts 219°
2026-05-07 20:15 38.68816 -9.49959 9000 ft 250 kts 219°
2026-05-07 20:15 38.67457 -9.51335 9000 ft 250 kts 219°
2026-05-07 20:16 38.66097 -9.52710 9000 ft 250 kts 219°
2026-05-07 20:16 38.64734 -9.54090 9000 ft 250 kts 219°
2026-05-07 20:16 38.63382 -9.55457 9268 ft 249 kts 219°
2026-05-07 20:16 38.62006 -9.56848 9570 ft 253 kts 219°
2026-05-07 20:17 38.60622 -9.58247 9576 ft 254 kts 219°
2026-05-07 20:17 38.59239 -9.59603 9345 ft 252 kts 211°
2026-05-07 20:17 38.57606 -9.60302 9098 ft 249 kts 183°
2026-05-07 20:17 38.55911 -9.59874 9001 ft 252 kts 153°
2026-05-07 20:18 38.54478 -9.58587 8995 ft 253 kts 142°
2026-05-07 20:18 38.53087 -9.57215 9001 ft 252 kts 142°
2026-05-07 20:18 38.51697 -9.55842 9000 ft 253 kts 142°
2026-05-07 20:18 38.50306 -9.54476 9000 ft 253 kts 142°
2026-05-07 20:19 38.48913 -9.53112 9000 ft 252 kts 143°
2026-05-07 20:19 38.47515 -9.51746 9000 ft 252 kts 143°
2026-05-07 20:19 38.46125 -9.50391 8956 ft 251 kts 143°
2026-05-07 20:19 38.44743 -9.49043 8703 ft 250 kts 143°
2026-05-07 20:20 38.43827 -9.48151 8493 ft 250 kts 143°
2026-05-07 20:20 38.42191 -9.46095 8069 ft 247 kts 117°
2026-05-07 20:20 38.41799 -9.44050 7967 ft 233 kts 88°
2026-05-07 20:20 38.42198 -9.42106 7729 ft 226 kts 59°
2026-05-07 20:21 38.43234 -9.40637 7389 ft 224 kts 38°
2026-05-07 20:21 38.44447 -9.39390 7056 ft 224 kts 38°
2026-05-07 20:21 38.45648 -9.38138 6734 ft 222 kts 39°
2026-05-07 20:21 38.46840 -9.36881 6432 ft 221 kts 39°
2026-05-07 20:22 38.48007 -9.35642 6170 ft 214 kts 39°
2026-05-07 20:22 38.49154 -9.34423 5595 ft 216 kts 39°
2026-05-07 20:22 38.50307 -9.33197 5053 ft 216 kts 39°
2026-05-07 20:22 38.51457 -9.31974 4551 ft 214 kts 39°
2026-05-07 20:23 38.52590 -9.30768 4155 ft 208 kts 39°
2026-05-07 20:23 38.53723 -9.29563 4078 ft 215 kts 39°
2026-05-07 20:23 38.54865 -9.28348 4062 ft 213 kts 39°
2026-05-07 20:23 38.56004 -9.27136 4062 ft 213 kts 39°
2026-05-07 20:24 38.57145 -9.25921 4062 ft 213 kts 39°
2026-05-07 20:24 38.58285 -9.24708 4062 ft 213 kts 39°
2026-05-07 20:24 38.59489 -9.23605 3961 ft 210 kts 28°
2026-05-07 20:24 38.60740 -9.22857 3677 ft 187 kts 21°
2026-05-07 20:25 38.61879 -9.22279 3431 ft 165 kts 21°
2026-05-07 20:25 38.62863 -9.21753 3208 ft 147 kts 22°
2026-05-07 20:25 38.63818 -9.21245 3012 ft 148 kts 22°
2026-05-07 20:25 38.64766 -9.20740 2816 ft 151 kts 22°
2026-05-07 20:26 38.65867 -9.20153 2581 ft 184 kts 22°
2026-05-07 20:26 38.67061 -9.19514 2336 ft 186 kts 22°
2026-05-07 20:26 38.67852 -9.19092 2168 ft 186 kts 22°
2026-05-07 20:26 38.69152 -9.18398 1896 ft 186 kts 22°
2026-05-07 20:27 38.70342 -9.17762 1664 ft 185 kts 22°
2026-05-07 20:27 38.71493 -9.17147 1417 ft 170 kts 22°
2026-05-07 20:27 38.72511 -9.16598 1191 ft 149 kts 22°
2026-05-07 20:27 38.73429 -9.16100 996 ft 141 kts 21°
2026-05-07 20:28 38.74353 -9.15611 836 ft 145 kts 22°
2026-05-07 20:28 38.75263 -9.15110 698 ft 142 kts 22°
2026-05-07 20:28 38.76177 -9.14627 487 ft 142 kts 21°
2026-05-07 20:28 38.77088 -9.14151 358 ft 140 kts 22°
2026-05-07 20:29 38.77927 -9.13709 352 ft 106 kts 22°
2026-05-07 20:29 38.78250 -9.13529 353 ft 22 kts 25°
2026-05-07 20:29 38.78380 -9.13460 355 ft 26 kts 22°
2026-05-07 20:29 38.78536 -9.13332 349 ft 24 kts 72°
2026-05-07 20:30 38.78481 -9.13232 355 ft 14 kts 154°
2026-05-07 20:30 38.78421 -9.13219 350 ft 0 kts 182°